| time (UTC) | temp F | wind direction | speed MPH | gust MPH | rain 1hr in | rain 24hr in | rain mn in | humidity % | barometer mb |
| 20260831094801 | 69 | 336 | 0.0 | 0.0 | 0.00 | 0.42 | 0.00 | 90 | 1014.3 |
| 20260831094302 | 69 | 336 | 0.0 | 0.0 | 0.00 | 0.42 | 0.00 | 90 | 1014.4 |
| 20260831093801 | 69 | 336 | 0.0 | 0.0 | 0.00 | 0.42 | 0.00 | 90 | 1014.4 |
| 20260831093301 | 69 | 336 | 0.0 | 1.0 | 0.00 | 0.42 | 0.00 | 90 | 1014.4 |
| 20260831092802 | 69 | 336 | 0.0 | 1.0 | 0.00 | 0.42 | 0.00 | 90 | 1014.4 |
| 20260831092306 | 69 | 336 | 0.0 | 1.0 | 0.00 | 0.42 | 0.00 | 90 | 1014.4 |
| 20260831091556 | 69 | 347 | 0.0 | 1.0 | 0.00 | 0.42 | 0.00 | 90 | 1014.3 |
| 20260831091055 | 69 | 349 | 0.0 | 1.0 | 0.00 | 0.42 | 0.00 | 90 | 1014.3 |
| 20260831090555 | 69 | 266 | 0.0 | 1.0 | 0.00 | 0.42 | 0.00 | 90 | 1014.4 |
| 20260831090056 | 69 | 288 | 0.0 | 1.0 | 0.00 | 0.42 | 0.00 | 90 | 1014.4 |
| 20260831085556 | 69 | 276 | 0.0 | 1.0 | 0.00 | 0.42 | 0.00 | 90 | 1014.4 |
| 20260831085055 | 69 | 276 | 0.0 | 2.0 | 0.00 | 0.42 | 0.00 | 90 | 1014.3 |
| 20260831084555 | 69 | 326 | 0.0 | 2.0 | 0.00 | 0.42 | 0.00 | 90 | 1014.3 |
| 20260831084055 | 69 | 258 | 0.0 | 1.0 | 0.00 | 0.42 | 0.00 | 90 | 1014.2 |
| 20260831083555 | 69 | 258 | 0.0 | 1.0 | 0.00 | 0.42 | 0.00 | 90 | 1014.3 |
| 20260831083055 | 69 | 258 | 0.0 | 2.0 | 0.00 | 0.42 | 0.00 | 90 | 1014.3 |
| 20260831082555 | 69 | 276 | 1.0 | 2.0 | 0.00 | 0.42 | 0.00 | 90 | 1014.1 |
| 20260831082055 | 68 | 165 | 0.0 | 1.0 | 0.00 | 0.42 | 0.00 | 90 | 1014.1 |
| 20260831081556 | 69 | 159 | 0.0 | 2.0 | 0.00 | 0.42 | 0.00 | 90 | 1014.3 |
| 20260831081056 | 69 | 145 | 0.0 | 2.0 | 0.00 | 0.42 | 0.00 | 90 | 1014.1 |
| 20260831080555 | 69 | 46 | 0.0 | 1.0 | 0.00 | 0.42 | 0.00 | 90 | 1014.2 |
| 20260831080058 | 69 | 46 | 0.0 | 1.0 | 0.00 | 0.42 | 0.00 | 90 | 1014.3 |
| 20260831075556 | 68 | 61 | 0.0 | 1.0 | 0.00 | 0.42 | 0.00 | 90 | 1014.2 |
| 20260831075057 | 68 | 61 | 0.0 | 1.0 | 0.00 | 0.42 | 0.00 | 90 | 1014.2 |
| 20260831074557 | 68 | 61 | 0.0 | 1.0 | 0.00 | 0.42 | 0.00 | 90 | 1014.2 |
| 20260831074057 | 69 | 61 | 0.0 | 0.0 | 0.00 | 0.42 | 0.00 | 90 | 1014.2 |
| 20260831073556 | 69 | 61 | 0.0 | 0.0 | 0.00 | 0.42 | 0.00 | 90 | 1014.3 |
| 20260831073057 | 69 | 61 | 0.0 | 0.0 | 0.00 | 0.42 | 0.00 | 90 | 1014.3 |
| 20260831072556 | 69 | 61 | 0.0 | 1.0 | 0.00 | 0.42 | 0.00 | 90 | 1014.4 |
| 20260831072056 | 69 | 61 | 0.0 | 1.0 | 0.00 | 0.42 | 0.00 | 90 | 1014.3 |
| 20260831071556 | 69 | 55 | 0.0 | 0.0 | 0.00 | 0.42 | 0.00 | 90 | 1014.3 |
| 20260831071056 | 69 | 55 | 0.0 | 0.0 | 0.00 | 0.42 | 0.00 | 90 | 1014.4 |
| 20260831063056 | 69 | 82 | 0.0 | 2.0 | 0.00 | 0.42 | 0.00 | 90 | 1014.3 |
| 20260831062556 | 69 | 58 | 0.0 | 1.0 | 0.00 | 0.42 | 0.00 | 89 | 1014.3 |
| 20260831062056 | 69 | 55 | 0.0 | 1.0 | 0.00 | 0.42 | 0.00 | 89 | 1014.3 |
| 20260831061555 | 69 | 55 | 0.0 | 2.0 | 0.00 | 0.42 | 0.00 | 89 | 1014.2 |
| 20260831061055 | 69 | 55 | 0.0 | 2.0 | 0.00 | 0.42 | 0.00 | 89 | 1014.4 |
| 20260831060556 | 69 | 55 | 0.0 | 0.0 | 0.00 | 0.42 | 0.00 | 89 | 1014.5 |
| 20260831060056 | 69 | 55 | 0.0 | 0.0 | 0.00 | 0.42 | 0.00 | 89 | 1014.5 |
| 20260831055555 | 69 | 55 | 0.0 | 0.0 | 0.00 | 0.42 | 0.00 | 90 | 1014.6 |
| 20260831055055 | 69 | 55 | 0.0 | 1.0 | 0.00 | 0.42 | 0.00 | 90 | 1014.6 |
| 20260831054555 | 69 | 55 | 0.0 | 1.0 | 0.00 | 0.42 | 0.00 | 90 | 1014.6 |
| 20260831054055 | 69 | 55 | 0.0 | 1.0 | 0.00 | 0.42 | 0.00 | 90 | 1014.6 |
| 20260831053555 | 69 | 55 | 0.0 | 1.0 | 0.00 | 0.42 | 0.00 | 90 | 1014.6 |
| 20260831053055 | 69 | 55 | 0.0 | 1.0 | 0.00 | 0.42 | 0.00 | 90 | 1014.6 |
| 20260831052555 | 69 | 55 | 0.0 | 1.0 | 0.00 | 0.42 | 0.00 | 90 | 1014.7 |
| 20260831052055 | 69 | 55 | 0.0 | 2.0 | 0.00 | 0.42 | 0.00 | 90 | 1014.8 |
| 20260831051555 | 69 | 55 | 0.0 | 2.0 | 0.00 | 0.42 | 0.00 | 90 | 1014.8 |
| 20260831051055 | 69 | 59 | 0.0 | 2.0 | 0.00 | 0.42 | 0.00 | 89 | 1014.8 |
| 20260831050555 | 69 | 34 | 0.0 | 0.0 | 0.00 | 0.42 | 0.00 | 89 | 1014.9 |
| 20260831050059 | 69 | 34 | 0.0 | 2.0 | 0.00 | 0.42 | 0.00 | 89 | 1014.8 |
| 20260831045556 | 69 | 34 | 0.0 | 2.0 | 0.00 | 0.42 | 0.00 | 89 | 1014.8 |
| 20260831045057 | 69 | 162 | 0.0 | 0.0 | 0.00 | 0.42 | 0.00 | 89 | 1014.9 |
| 20260831044556 | 69 | 90 | 0.0 | 1.0 | 0.00 | 0.42 | 0.00 | 89 | 1014.9 |
| 20260831044057 | 69 | 90 | 0.0 | 1.0 | 0.00 | 0.42 | 0.00 | 89 | 1014.8 |
| 20260831043556 | 69 | 90 | 0.0 | 1.0 | 0.00 | 0.42 | 0.00 | 89 | 1014.7 |
| 20260831043057 | 69 | 90 | 0.0 | 2.0 | 0.00 | 0.42 | 0.00 | 89 | 1014.7 |
| 20260831042556 | 69 | 90 | 0.0 | 2.0 | 0.00 | 0.42 | 0.00 | 89 | 1014.6 |
| 20260831042056 | 69 | 97 | 0.0 | 2.0 | 0.00 | 0.42 | 0.00 | 89 | 1014.6 |
| 20260831041556 | 69 | 176 | 0.0 | 0.0 | 0.00 | 0.42 | 0.00 | 88 | 1014.6 |
| 20260831033556 | 70 | 176 | 0.0 | 1.0 | 0.00 | 0.42 | 0.42 | 88 | 1014.5 |
| 20260831033056 | 70 | 180 | 0.0 | 0.0 | 0.00 | 0.42 | 0.42 | 87 | 1014.7 |
| 20260831032556 | 71 | 180 | 0.0 | 0.0 | 0.00 | 0.42 | 0.42 | 87 | 1014.7 |
| 20260831032056 | 71 | 180 | 0.0 | 0.0 | 0.00 | 0.42 | 0.42 | 87 | 1014.8 |
| 20260831031557 | 71 | 180 | 0.0 | 0.0 | 0.00 | 0.42 | 0.42 | 87 | 1014.7 |
| 20260831031057 | 71 | 180 | 0.0 | 0.0 | 0.00 | 0.42 | 0.42 | 86 | 1014.7 |
| 20260831030557 | 71 | 180 | 0.0 | 0.0 | 0.00 | 0.42 | 0.42 | 86 | 1014.7 |
| 20260831030057 | 71 | 180 | 0.0 | 0.0 | 0.00 | 0.42 | 0.42 | 86 | 1014.7 |
| 20260831025557 | 71 | 180 | 0.0 | 0.0 | 0.00 | 0.42 | 0.42 | 86 | 1014.7 |
| 20260831025056 | 71 | 180 | 0.0 | 0.0 | 0.00 | 0.42 | 0.42 | 86 | 1014.6 |
| 20260831024556 | 72 | 180 | 0.0 | 0.0 | 0.00 | 0.42 | 0.42 | 86 | 1014.7 |
| 20260831024056 | 72 | 180 | 0.0 | 0.0 | 0.00 | 0.42 | 0.42 | 86 | 1014.7 |
| 20260831023557 | 72 | 180 | 0.0 | 0.0 | 0.00 | 0.42 | 0.42 | 86 | 1014.7 |
| 20260831023056 | 72 | 180 | 0.0 | 0.0 | 0.00 | 0.42 | 0.42 | 86 | 1014.6 |
| 20260831015057 | 73 | 179 | 0.0 | 3.0 | 0.00 | 0.43 | 0.42 | 84 | 1014.3 |
| 20260831014557 | 73 | 225 | 0.0 | 1.0 | 0.00 | 0.43 | 0.42 | 84 | 1014.3 |
| 20260831014058 | 73 | 223 | 0.0 | 1.0 | 0.00 | 0.43 | 0.42 | 83 | 1014.2 |
| 20260831013558 | 73 | 221 | 0.0 | 0.0 | 0.00 | 0.43 | 0.42 | 83 | 1014.1 |
| 20260831013058 | 73 | 222 | 0.0 | 0.0 | 0.00 | 0.43 | 0.42 | 82 | 1014.0 |
| 20260831012557 | 73 | 221 | 0.0 | 0.0 | 0.00 | 0.43 | 0.42 | 83 | 1014.1 |
| 20260831012058 | 74 | 221 | 0.0 | 0.0 | 0.00 | 0.43 | 0.42 | 83 | 1014.1 |
| 20260831011558 | 74 | 221 | 0.0 | 0.0 | 0.00 | 0.43 | 0.42 | 83 | 1014.0 |
| 20260831011059 | 74 | 222 | 0.0 | 1.0 | 0.00 | 0.43 | 0.42 | 83 | 1013.9 |
| 20260831010558 | 74 | 221 | 0.0 | 1.0 | 0.00 | 0.43 | 0.42 | 82 | 1013.7 |
| 20260831010057 | 74 | 222 | 0.0 | 0.0 | 0.00 | 0.43 | 0.42 | 82 | 1013.7 |
| 20260831005557 | 74 | 223 | 0.0 | 1.0 | 0.00 | 0.43 | 0.42 | 82 | 1013.6 |
| 20260831005056 | 75 | 354 | 0.0 | 2.0 | 0.00 | 0.43 | 0.42 | 82 | 1013.5 |
| 20260831004556 | 75 | 103 | 0.0 | 1.0 | 0.00 | 0.43 | 0.42 | 82 | 1013.5 |
| 20260831004056 | 75 | 201 | 0.0 | 2.0 | 0.00 | 0.43 | 0.42 | 81 | 1013.5 |
| 20260831003556 | 75 | 201 | 1.0 | 2.0 | 0.00 | 0.43 | 0.42 | 81 | 1013.5 |
| 20260831003056 | 75 | 215 | 0.0 | 3.0 | 0.00 | 0.43 | 0.42 | 81 | 1013.5 |
| 20260831002556 | 75 | 305 | 1.0 | 3.0 | 0.00 | 0.43 | 0.42 | 81 | 1013.6 |
| 20260831002056 | 75 | 182 | 1.0 | 2.0 | 0.00 | 0.43 | 0.42 | 80 | 1013.6 |
| 20260831001557 | 76 | 180 | 0.0 | 5.0 | 0.00 | 0.43 | 0.42 | 80 | 1013.6 |
| 20260831001056 | 76 | 244 | 0.0 | 5.0 | 0.00 | 0.43 | 0.42 | 80 | 1013.6 |
| 20260831000557 | 76 | 345 | 1.0 | 4.0 | 0.00 | 0.43 | 0.42 | 80 | 1013.6 |
| 20260831000059 | 76 | 296 | 2.0 | 5.0 | 0.00 | 0.43 | 0.42 | 80 | 1013.5 |
| 20260830235557 | 76 | 222 | 2.0 | 4.0 | 0.00 | 0.43 | 0.42 | 80 | 1013.6 |
| 20260830235057 | 76 | 228 | 3.0 | 4.0 | 0.00 | 0.43 | 0.42 | 80 | 1013.4 |
| 20260830234558 | 76 | 194 | 2.0 | 5.0 | 0.00 | 0.43 | 0.42 | 80 | 1013.4 |
| 20260830234057 | 76 | 220 | 1.0 | 3.0 | 0.00 | 0.43 | 0.42 | 80 | 1013.4 |
| 20260830233558 | 76 | 203 | 1.0 | 5.0 | 0.00 | 0.43 | 0.42 | 80 | 1013.4 |
| 20260830233057 | 76 | 282 | 1.0 | 7.0 | 0.00 | 0.43 | 0.42 | 79 | 1013.3 |
| 20260830232557 | 76 | 259 | 3.0 | 7.0 | 0.00 | 0.43 | 0.42 | 79 | 1013.2 |
| 20260830232057 | 76 | 334 | 1.0 | 5.0 | 0.00 | 0.43 | 0.42 | 79 | 1013.2 |
| 20260830231558 | 76 | 100 | 1.0 | 5.0 | 0.00 | 0.43 | 0.42 | 78 | 1013.2 |
| 20260830231057 | 77 | 319 | 2.0 | 11.0 | 0.00 | 0.43 | 0.42 | 78 | 1013.2 |
| 20260830230557 | 77 | 253 | 3.0 | 11.0 | 0.00 | 0.43 | 0.42 | 78 | 1013.2 |
| 20260830230057 | 77 | 259 | 2.0 | 10.0 | 0.00 | 0.43 | 0.42 | 77 | 1013.2 |
| 20260830225556 | 77 | 266 | 3.0 | 10.0 | 0.00 | 0.43 | 0.42 | 76 | 1013.2 |
| 20260830225056 | 77 | 205 | 4.0 | 10.0 | 0.00 | 0.43 | 0.42 | 76 | 1013.3 |
| 20260830224556 | 78 | 254 | 4.0 | 10.0 | 0.00 | 0.43 | 0.42 | 75 | 1013.3 |
| 20260830224056 | 78 | 219 | 3.0 | 9.0 | 0.00 | 0.43 | 0.42 | 75 | 1013.3 |
| 20260830223556 | 78 | 190 | 2.0 | 9.0 | 0.00 | 0.43 | 0.42 | 75 | 1013.3 |
| 20260830223057 | 78 | 237 | 4.0 | 10.0 | 0.00 | 0.43 | 0.42 | 74 | 1013.2 |
| 20260830222556 | 78 | 255 | 3.0 | 10.0 | 0.00 | 0.43 | 0.42 | 74 | 1013.2 |
| 20260830222056 | 79 | 222 | 4.0 | 8.0 | 0.00 | 0.43 | 0.42 | 73 | 1013.3 |
| 20260830221556 | 79 | 352 | 1.0 | 6.0 | 0.00 | 0.43 | 0.42 | 73 | 1013.3 |
| 20260830221056 | 79 | 276 | 3.0 | 12.0 | 0.00 | 0.43 | 0.42 | 72 | 1013.3 |
| 20260830220556 | 79 | 192 | 4.0 | 12.0 | 0.00 | 0.43 | 0.42 | 71 | 1013.3 |
| 20260830220056 | 79 | 293 | 5.0 | 12.0 | 0.00 | 0.43 | 0.42 | 71 | 1013.4 |
| 20260830215556 | 79 | 345 | 5.0 | 13.0 | 0.00 | 0.43 | 0.42 | 71 | 1013.3 |
| 20260830215056 | 79 | 217 | 2.0 | 13.0 | 0.00 | 0.43 | 0.42 | 72 | 1013.4 |
| 20260830214556 | 80 | 188 | 3.0 | 9.0 | 0.00 | 0.43 | 0.42 | 70 | 1013.5 |
| 20260830214056 | 80 | 231 | 4.0 | 11.0 | 0.00 | 0.43 | 0.42 | 69 | 1013.5 |
| 20260830213556 | 81 | 197 | 3.0 | 11.0 | 0.00 | 0.43 | 0.42 | 68 | 1013.4 |
| 20260830213056 | 82 | 305 | 2.0 | 10.0 | 0.00 | 0.43 | 0.42 | 70 | 1013.5 |
| 20260830212556 | 82 | 236 | 3.0 | 11.0 | 0.00 | 0.43 | 0.42 | 68 | 1013.4 |
| 20260830212031 | 82 | 313 | 3.0 | 13.0 | 0.00 | 0.43 | 0.42 | 67 | 1013.4 |
| 20260830211531 | 82 | 220 | 2.0 | 12.0 | 0.00 | 0.43 | 0.42 | 69 | 1013.5 |
| 20260830211031 | 82 | 281 | 2.0 | 9.0 | 0.00 | 0.43 | 0.42 | 70 | 1013.5 |
| 20260830210531 | 82 | 11 | 2.0 | 9.0 | 0.00 | 0.43 | 0.42 | 71 | 1013.6 |
| 20260830210032 | 81 | 191 | 1.0 | 8.0 | 0.00 | 0.43 | 0.42 | 73 | 1013.7 |
| 20260830205531 | 81 | 232 | 3.0 | 9.0 | 0.00 | 0.43 | 0.42 | 71 | 1013.7 |
| 20260830205032 | 82 | 201 | 2.0 | 9.0 | 0.00 | 0.43 | 0.42 | 70 | 1013.7 |
| 20260830204532 | 82 | 182 | 4.0 | 9.0 | 0.00 | 0.43 | 0.42 | 69 | 1013.8 |
| 20260830204032 | 83 | 175 | 2.0 | 10.0 | 0.00 | 0.43 | 0.42 | 70 | 1013.7 |
| 20260830203533 | 83 | 214 | 4.0 | 10.0 | 0.00 | 0.43 | 0.42 | 70 | 1013.6 |
| 20260830203032 | 83 | 353 | 4.0 | 10.0 | 0.00 | 0.43 | 0.42 | 71 | 1013.6 |
| 20260830202532 | 83 | 224 | 3.0 | 9.0 | 0.00 | 0.43 | 0.42 | 70 | 1013.7 |
| 20260830202032 | 83 | 230 | 3.0 | 11.0 | 0.00 | 0.43 | 0.42 | 71 | 1013.7 |
| 20260830201532 | 83 | 237 | 4.0 | 11.0 | 0.00 | 0.43 | 0.42 | 70 | 1013.9 |
| 20260830201032 | 83 | 211 | 2.0 | 13.0 | 0.00 | 0.43 | 0.42 | 73 | 1013.9 |
| 20260830200532 | 83 | 195 | 5.0 | 9.0 | 0.00 | 0.43 | 0.42 | 70 | 1013.9 |
| 20260830200033 | 82 | 271 | 5.0 | 10.0 | 0.00 | 0.43 | 0.42 | 71 | 1014.0 |
| 20260830195532 | 82 | 259 | 4.0 | 13.0 | 0.00 | 0.43 | 0.42 | 71 | 1014.0 |
| 20260830195032 | 82 | 313 | 4.0 | 11.0 | 0.00 | 0.43 | 0.42 | 71 | 1014.1 |
| 20260830194532 | 82 | 232 | 5.0 | 8.0 | 0.00 | 0.43 | 0.42 | 71 | 1014.1 |
| 20260830194032 | 82 | 18 | 3.0 | 12.0 | 0.00 | 0.43 | 0.42 | 73 | 1014.1 |
| 20260830193532 | 82 | 196 | 4.0 | 12.0 | 0.00 | 0.43 | 0.42 | 72 | 1013.9 |
| 20260830193032 | 82 | 143 | 4.0 | 13.0 | 0.00 | 0.43 | 0.42 | 73 | 1013.8 |
| 20260830192532 | 82 | 124 | 4.0 | 12.0 | 0.00 | 0.43 | 0.42 | 72 | 1013.7 |
| 20260830192032 | 82 | 189 | 3.0 | 12.0 | 0.00 | 0.43 | 0.42 | 72 | 1013.7 |
| 20260830191532 | 82 | 171 | 5.0 | 12.0 | 0.00 | 0.43 | 0.42 | 71 | 1013.7 |
| 20260830191031 | 82 | 176 | 5.0 | 11.0 | 0.00 | 0.43 | 0.42 | 72 | 1013.8 |
| 20260830190532 | 81 | 225 | 4.0 | 8.0 | 0.00 | 0.43 | 0.42 | 74 | 1013.8 |
| 20260830190034 | 81 | 221 | 4.0 | 11.0 | 0.00 | 0.43 | 0.42 | 73 | 1013.8 |
| 20260830185532 | 80 | 122 | 5.0 | 11.0 | 0.00 | 0.43 | 0.42 | 73 | 1013.6 |
| 20260830185033 | 80 | 179 | 5.0 | 10.0 | 0.00 | 0.43 | 0.42 | 73 | 1013.6 |
| 20260830184532 | 80 | 253 | 5.0 | 11.0 | 0.00 | 0.43 | 0.42 | 73 | 1013.5 |
| 20260830184032 | 80 | 132 | 3.0 | 11.0 | 0.00 | 0.43 | 0.42 | 74 | 1013.6 |
| 20260830183532 | 80 | 195 | 5.0 | 11.0 | 0.00 | 0.43 | 0.42 | 73 | 1013.5 |
| 20260830183031 | 80 | 201 | 5.0 | 10.0 | 0.00 | 0.43 | 0.42 | 75 | 1013.7 |
| 20260830182532 | 80 | 312 | 3.0 | 10.0 | 0.00 | 0.43 | 0.42 | 74 | 1013.6 |
| 20260830182032 | 80 | 203 | 3.0 | 12.0 | 0.00 | 0.43 | 0.42 | 77 | 1013.7 |
| 20260830181532 | 80 | 151 | 4.0 | 10.0 | 0.00 | 0.43 | 0.42 | 74 | 1013.6 |
| 20260830181032 | 80 | 249 | 2.0 | 12.0 | 0.00 | 0.43 | 0.42 | 80 | 1013.7 |
| 20260830180532 | 80 | 151 | 3.0 | 10.0 | 0.00 | 0.43 | 0.42 | 77 | 1013.7 |
| 20260830180032 | 80 | 232 | 4.0 | 8.0 | 0.00 | 0.43 | 0.42 | 77 | 1013.6 |
| 20260830175531 | 80 | 220 | 2.0 | 8.0 | 0.00 | 0.43 | 0.42 | 80 | 1013.6 |
| 20260830175032 | 79 | 116 | 2.0 | 10.0 | 0.00 | 0.43 | 0.42 | 78 | 1013.6 |
| 20260830174532 | 79 | 161 | 3.0 | 11.0 | 0.00 | 0.43 | 0.42 | 80 | 1013.8 |
| 20260830174031 | 78 | 215 | 3.0 | 10.0 | 0.00 | 0.43 | 0.42 | 79 | 1013.8 |
| 20260830173531 | 78 | 195 | 5.0 | 10.0 | 0.00 | 0.43 | 0.42 | 79 | 1013.8 |
| 20260830173032 | 78 | 271 | 4.0 | 9.0 | 0.00 | 0.43 | 0.42 | 81 | 1013.8 |
| 20260830172531 | 78 | 276 | 4.0 | 9.0 | 0.00 | 0.43 | 0.42 | 80 | 1013.8 |
| 20260830172032 | 78 | 205 | 2.0 | 5.0 | 0.00 | 0.43 | 0.42 | 81 | 1013.9 |
| 20260830171530 | 77 | 232 | 2.0 | 10.0 | 0.00 | 0.43 | 0.42 | 81 | 1014.0 |
| 20260830171031 | 77 | 169 | 3.0 | 12.0 | 0.00 | 0.43 | 0.42 | 81 | 1014.0 |
| 20260830170532 | 77 | 276 | 3.0 | 10.0 | 0.00 | 0.43 | 0.42 | 83 | 1014.3 |
| 20260830170031 | 76 | 257 | 5.0 | 10.0 | 0.00 | 0.43 | 0.42 | 84 | 1014.3 |
| 20260830165531 | 76 | 189 | 5.0 | 10.0 | 0.00 | 0.43 | 0.42 | 82 | 1014.4 |
| 20260830165031 | 76 | 360 | 2.0 | 8.0 | 0.00 | 0.43 | 0.42 | 85 | 1014.5 |
| 20260830164531 | 75 | 192 | 3.0 | 10.0 | 0.00 | 0.43 | 0.42 | 85 | 1014.4 |
| 20260830164032 | 74 | 221 | 5.0 | 10.0 | 0.00 | 0.43 | 0.42 | 84 | 1014.5 |
| 20260830163531 | 74 | 205 | 4.0 | 10.0 | 0.00 | 0.43 | 0.42 | 84 | 1014.6 |
| 20260830163031 | 74 | 209 | 4.0 | 9.0 | 0.00 | 0.43 | 0.42 | 85 | 1014.6 |
| 20260830162531 | 74 | 224 | 4.0 | 10.0 | 0.00 | 0.43 | 0.42 | 86 | 1014.4 |
| 20260830162031 | 73 | 118 | 4.0 | 10.0 | 0.00 | 0.43 | 0.42 | 87 | 1014.6 |
| 20260830161531 | 72 | 207 | 4.0 | 10.0 | 0.00 | 0.43 | 0.42 | 88 | 1014.6 |
| 20260830161030 | 72 | 192 | 2.0 | 6.0 | 0.00 | 0.43 | 0.42 | 88 | 1014.6 |
| 20260830160530 | 71 | 238 | 2.0 | 10.0 | 0.00 | 0.43 | 0.42 | 88 | 1014.6 |
| 20260830160031 | 71 | 181 | 3.0 | 11.0 | 0.00 | 0.43 | 0.42 | 88 | 1014.6 |
| 20260830155532 | 71 | 21 | 4.0 | 11.0 | 0.00 | 0.43 | 0.42 | 88 | 1014.6 |
| 20260830155031 | 70 | 169 | 2.0 | 10.0 | 0.00 | 0.43 | 0.42 | 89 | 1014.6 |
| 20260830154531 | 70 | 228 | 3.0 | 9.0 | 0.00 | 0.43 | 0.42 | 89 | 1014.9 |
| 20260830140034 | 66 | 220 | 3.0 | 9.0 | 0.00 | 0.43 | 0.42 | 91 | 1015.2 |
| 20260830135532 | 66 | 246 | 3.0 | 10.0 | 0.01 | 0.43 | 0.42 | 91 | 1015.4 |
| 20260830135032 | 66 | 153 | 4.0 | 10.0 | 0.02 | 0.43 | 0.42 | 91 | 1015.5 |
| 20260830134532 | 66 | 176 | 3.0 | 9.0 | 0.02 | 0.43 | 0.42 | 91 | 1015.3 |
| 20260830134032 | 66 | 165 | 4.0 | 11.0 | 0.02 | 0.43 | 0.42 | 91 | 1015.5 |
| 20260830133532 | 66 | 235 | 3.0 | 11.0 | 0.02 | 0.43 | 0.42 | 91 | 1015.5 |
| 20260830133033 | 65 | 177 | 3.0 | 10.0 | 0.02 | 0.43 | 0.42 | 91 | 1015.8 |
| 20260830132532 | 65 | 34 | 3.0 | 9.0 | 0.02 | 0.43 | 0.42 | 91 | 1016.1 |
| 20260830132032 | 66 | 195 | 2.0 | 10.0 | 0.03 | 0.43 | 0.42 | 91 | 1016.2 |
| 20260830131532 | 66 | 181 | 4.0 | 9.0 | 0.03 | 0.43 | 0.42 | 91 | 1016.2 |
| 20260830131032 | 66 | 159 | 3.0 | 11.0 | 0.03 | 0.43 | 0.42 | 91 | 1016.3 |
| 20260830130532 | 66 | 257 | 4.0 | 13.0 | 0.05 | 0.43 | 0.42 | 90 | 1016.4 |
| 20260830130034 | 66 | 328 | 4.0 | 13.0 | 0.05 | 0.43 | 0.42 | 90 | 1016.6 |
| 20260830125531 | 66 | 214 | 4.0 | 12.0 | 0.06 | 0.42 | 0.41 | 90 | 1016.9 |
| 20260830125032 | 66 | 178 | 3.0 | 9.0 | 0.05 | 0.41 | 0.40 | 90 | 1016.8 |
| 20260830124532 | 66 | 199 | 2.0 | 5.0 | 0.06 | 0.41 | 0.40 | 90 | 1017.0 |
| 20260830124032 | 66 | 200 | 3.0 | 4.0 | 0.06 | 0.41 | 0.40 | 90 | 1016.8 |
| 20260830123531 | 66 | 181 | 1.0 | 5.0 | 0.07 | 0.41 | 0.40 | 90 | 1016.6 |
| 20260830123033 | 66 | 156 | 1.0 | 5.0 | 0.07 | 0.41 | 0.40 | 90 | 1016.5 |
| 20260830122533 | 66 | 166 | 1.0 | 5.0 | 0.08 | 0.41 | 0.40 | 90 | 1016.4 |
| 20260830122032 | 66 | 188 | 1.0 | 6.0 | 0.09 | 0.40 | 0.39 | 90 | 1016.7 |
| 20260830121531 | 66 | 161 | 2.0 | 6.0 | 0.11 | 0.40 | 0.39 | 90 | 1016.7 |
| 20260830121032 | 66 | 178 | 1.0 | 4.0 | 0.12 | 0.39 | 0.38 | 90 | 1016.7 |
| 20260830120531 | 66 | 198 | 1.0 | 6.0 | 0.13 | 0.38 | 0.37 | 90 | 1016.8 |
| 20260830120032 | 66 | 172 | 3.0 | 6.0 | 0.18 | 0.37 | 0.36 | 90 | 1016.8 |
| 20260830115532 | 66 | 80 | 1.0 | 4.0 | 0.20 | 0.36 | 0.35 | 90 | 1016.7 |
| 20260830115030 | 66 | 182 | 1.0 | 2.0 | 0.21 | 0.36 | 0.35 | 89 | 1016.8 |
| 20260830114531 | 66 | 1 | 0.0 | 0.0 | 0.20 | 0.35 | 0.34 | 89 | 1016.7 |
| 20260830114030 | 66 | 1 | 0.0 | 1.0 | 0.22 | 0.35 | 0.34 | 89 | 1016.8 |
| 20260830113531 | 66 | 1 | 0.0 | 1.0 | 0.26 | 0.34 | 0.33 | 89 | 1016.7 |
| 20260830113031 | 66 | 32 | 0.0 | 1.0 | 0.31 | 0.34 | 0.33 | 89 | 1016.3 |
| 20260830112531 | 66 | 276 | 1.0 | 1.0 | 0.30 | 0.33 | 0.32 | 89 | 1016.4 |
| 20260830112030 | 66 | 314 | 0.0 | 2.0 | 0.28 | 0.31 | 0.30 | 89 | 1016.8 |
| 20260830111531 | 66 | 336 | 0.0 | 2.0 | 0.27 | 0.29 | 0.28 | 89 | 1016.6 |
| 20260830111031 | 67 | 12 | 0.0 | 1.0 | 0.26 | 0.27 | 0.26 | 88 | 1016.5 |
| 20260830110531 | 67 | 12 | 0.0 | 2.0 | 0.24 | 0.25 | 0.24 | 88 | 1016.4 |
| 20260830110034 | 67 | 11 | 0.0 | 2.0 | 0.18 | 0.19 | 0.18 | 88 | 1016.3 |
| 20260830105531 | 67 | 86 | 0.0 | 0.0 | 0.15 | 0.16 | 0.15 | 88 | 1016.2 |
| 20260830105031 | 67 | 86 | 0.0 | 1.0 | 0.14 | 0.15 | 0.14 | 88 | 1015.8 |
| 20260830104532 | 67 | 74 | 0.0 | 1.0 | 0.14 | 0.15 | 0.14 | 88 | 1015.7 |
| 20260830104031 | 67 | 161 | 0.0 | 1.0 | 0.12 | 0.13 | 0.12 | 88 | 1015.8 |
| 20260830103532 | 67 | 197 | 0.0 | 3.0 | 0.07 | 0.08 | 0.07 | 87 | 1015.9 |
| 20260830103032 | 67 | 193 | 1.0 | 3.0 | 0.02 | 0.03 | 0.02 | 87 | 1016.1 |
| 20260830102532 | 67 | 20 | 1.0 | 2.0 | 0.02 | 0.03 | 0.02 | 87 | 1015.8 |
| 20260830102032 | 67 | 197 | 0.0 | 3.0 | 0.02 | 0.03 | 0.02 | 87 | 1015.7 |
| 20260830101532 | 67 | 226 | 1.0 | 3.0 | 0.01 | 0.02 | 0.01 | 87 | 1015.6 |
| 20260830101032 | 67 | 223 | 0.0 | 5.0 | 0.00 | 0.01 | 0.00 | 87 | 1015.6 |
| 20260830100531 | 67 | 96 | 1.0 | 5.0 | 0.00 | 0.01 | 0.00 | 87 | 1015.5 |
| 20260830100034 | 67 | 324 | 1.0 | 7.0 | 0.00 | 0.01 | 0.00 | 87 | 1015.0 |
| 20260830095531 | 67 | 251 | 3.0 | 7.0 | 0.00 | 0.01 | 0.00 | 87 | 1014.6 |